Regional Weather Roundup
Issued by NWS

Home | Current Version | Previous Version | Text Only | Print | Product List | Glossary Off
Versions: 1 2 3 4 5 6 7 8 9 10 11 12 13 14 15 16 17 18 19 20 21 22 23 24 25 26 27 28 29 30 31 32 33 34 35 36 37 38 39 40 41 42 43 44 45 46 47 48 49 50

000
ASUS43 KBIS 281702
RWRND

NORTH DAKOTA REGIONAL WEATHER ROUNDUP
NATIONAL WEATHER SERVICE BISMARCK ND
1200 PM CDT THU APR 28 2016

NOTE: "FAIR" INDICATES FEW OR NO CLOUDS BELOW 12,000 FEET WITH NO
SIGNIFICANT WEATHER AND/OR OBSTRUCTIONS TO VISIBILITY.


NDZ001>003-009>011-017-281800-
NORTHWEST NORTH DAKOTA

CITY           SKY/WX    TMP DP  RH WIND       PRES   REMARKS
WILLISTON      CLOUDY    50  25  37 E7        30.16S
MINOT          MOSUNNY   54  19  25 NE9       30.14F
MINOT AFB      PTSUNNY   51  21  30 NE16      30.14S
$$

NDZ018>021-031>035-040>046-281800-
SOUTHWEST NORTH DAKOTA

CITY           SKY/WX    TMP DP  RH WIND       PRES   REMARKS
BISMARCK       CLOUDY    50  31  48 N7        30.11R
DICKINSON      CLOUDY    41  31  67 E8        30.09R
GARRISON         N/A     50  27  40 E10       30.12S
HETTINGER ARPT CLOUDY    37  34  89 NE9       30.10R
$$

NDZ004>008-012>016-024-026-027-054-281800-
NORTHEAST NORTH DAKOTA

CITY           SKY/WX    TMP DP  RH WIND       PRES   REMARKS
GRAND FORKS    PTSUNNY   54  19  25 NE16G23   30.12S
GRND FRKS AFB  CLOUDY    54  17  23 E15       30.13S
DEVILS LAKE    MOSUNNY   50  20  30 NE14      30.14S
$$

NDZ022-023-025-028>030-036>039-047>053-281800-
SOUTHEAST NORTH DAKOTA

CITY           SKY/WX    TMP DP  RH WIND       PRES   REMARKS
FARGO          CLOUDY    53  19  26 N8G20     30.06F
JAMESTOWN      PTSUNNY   51  26  37 NE17      30.07R
$$





USA.gov is the U.S. government's official web portal to all federal, state and local government web resources and services.